Dewpoint
62 65 65 63 58 57 53 50 53 54 55 51 52 58 58 60 59 56 62 62 65 66 70 72 75 74 73 73 73 72 72 73 74 73 73 72 72 72 73 74 73 73 72 72 73 72 70 73 71
62 62 61 60 54 51 50 52 54 56 57 51 55 58 56 55 57 58 60 62 63 66 67 72 75 74 74 74 74 73 72 72 73 74 73 72 72 72 71 72 72 73 73 72 71 73 72 73 73
67 63 61 57 55 51 49 52 51 52 55 54 53 59 57 55 57 58 60 62 63 64 65 73 75 74 74 74 74 73 73 72 73 73 73 72 72 71 71 71 71 71 72 73 72 71 72 72 72
61 63 60 53 54 55 51 52 50 52 49 56 57 58 56 58 58 60 60 61 62 63 69 75 75 75 73 75 74 74 73 73 74 73 73 72 71 71 71 71 71 72 72 71 72 72 72 71 71
60 65 56 52 46 48 50 53 54 52 50 53 56 57 56 58 60 60 60 60 62 69 72 73 76 74 74 74 74 74 74 73 73 73 72 72 71 71 71 71 70 70 70 71 71 70 71 71 71
61 59 51 48 45 48 49 51 51 51 49 52 55 57 59 60 60 59 59 61 66 69 69 72 75 75 75 74 74 74 73 72 72 70 69 68 69 70 70 70 71 71 71 71 70 70 71 70 69
57 57 50 45 46 47 48 50 51 54 54 53 56 57 58 59 59 59 60 65 65 66 70 71 72 73 74 74 74 74 73 71 70 68 68 68 68 70 70 70 69 69 69 70 71 70 70 70 69
51 57 46 47 48 51 46 48 55 54 50 53 58 57 57 58 59 59 61 62 64 66 67 69 70 72 73 73 73 73 72 71 71 71 71 69 71 69 70 68 69 68 68 69 69 70 69 70 70
49 48 44 44 49 51 47 45 54 54 54 54 53 59 59 59 58 58 62 64 64 66 67 68 69 71 72 73 73 73 72 71 70 68 67 66 69 71 70 67 67 67 68 69 69 69 70 70 70
53 47 43 46 43 46 44 48 46 57 57 55 58 59 59 59 58 58 62 65 65 66 67 68 69 69 70 69 73 73 73 72 72 68 66 65 65 70 69 65 66 68 68 68 69 69 69 70 69
47 44 41 40 44 46 45 47 52 53 54 57 61 59 60 59 58 58 58 65 66 66 67 70 69 70 67 70 71 72 73 72 70 68 66 67 66 67 67 68 68 69 69 69 68 68 70 70 70
39 40 40 40 40 41 44 42 52 54 51 55 62 62 60 59 58 58 59 60 65 65 67 67 69 69 67 71 70 71 71 69 68 68 67 66 67 66 66 69 69 69 69 68 68 69 69 70 70
40 35 34 36 37 38 38 43 45 50 55 57 61 61 60 59 59 59 59 60 61 64 65 66 67 70 69 70 70 71 70 68 69 70 70 67 66 66 64 70 69 69 69 67 69 69 66 69 70
38 33 32 34 36 39 39 43 45 54 53 52 58 60 60 60 59 61 63 62 63 64 64 66 67 70 70 70 70 70 71 69 70 71 71 70 69 69 69 66 68 67 69 69 69 68 68 69 70
35 30 27 33 36 38 40 44 51 55 55 54 55 60 60 62 67 67 68 68 64 64 65 68 69 68 70 70 70 71 70 69 70 71 71 71 70 71 69 66 67 68 68 69 69 69 70 70 70
32 29 28 36 35 41 39 50 53 51 52 53 59 60 60 67 67 68 68 68 69 66 66 68 67 68 69 70 71 71 71 70 70 70 71 71 71 70 69 68 67 68 69 69 69 69 69 68 68
28 28 32 35 36 37 39 50 47 52 50 54 59 58 60 67 66 67 68 67 67 68 67 68 68 68 70 70 72 71 71 69 70 71 71 72 70 69 70 68 68 68 70 69 69 69 69 68 67
28 31 33 36 41 36 39 50 51 51 51 51 53 57 61 64 66 66 66 65 63 67 68 69 68 69 70 70 72 71 70 69 69 69 70 71 69 69 70 67 68 69 69 69 69 68 68 68 68
32 33 28 32 35 32 34 38 45 49 50 50 54 61 62 63 66 65 63 64 66 61 63 68 67 69 70 71 71 71 70 69 69 70 69 70 72 70 70 69 66 68 68 69 69 70 68 67 68
30 29 25 32 34 31 38 40 45 47 47 48 52 57 60 63 63 64 64 61 63 68 66 68 70 70 71 71 71 71 69 70 70 71 70 72 71 70 69 70 69 69 67 70 70 68 68 67 69
25 27 27 30 34 33 30 48 47 50 48 49 53 57 58 59 60 60 62 65 68 68 68 68 69 70 71 71 72 71 70 71 70 70 71 70 71 70 69 69 70 70 70 68 70 69 68 68 67
21 24 29 28 27 25 34 34 46 50 51 48 51 54 55 56 57 59 61 61 66 63 66 68 70 71 72 72 70 70 68 68 69 66 68 70 72 71 71 70 70 71 71 69 69 69 68 68 66
23 29 29 26 25 24 31 43 44 45 49 48 48 51 50 56 53 54 55 57 59 60 62 67 69 70 71 72 70 68 68 70 71 70 69 71 71 72 71 71 71 72 71 70 71 68 69 69 67
24 25 26 26 26 23 31 34 43 43 47 48 48 48 49 49 50 54 57 57 60 61 62 66 69 71 71 71 71 70 69 70 70 70 70 70 71 72 72 71 72 72 71 72 71 70 69 69 70
23 23 22 22 23 34 31 30 40 43 46 45 46 47 47 49 51 55 59 60 61 61 63 67 69 70 71 71 71 71 71 72 71 70 71 70 70 71 72 72 72 71 72 71 71 70 71 71 71
23 22 22 26 30 34 36 41 43 43 44 44 45 47 47 48 50 50 52 57 59 60 64 66 70 71 72 70 71 72 72 72 70 69 71 71 70 70 71 72 71 71 71 71 71 71 71 71 71
22 23 28 28 30 31 35 47 49 49 45 42 42 46 46 48 49 51 54 56 58 60 61 61 69 69 70 70 71 72 71 72 71 71 70 69 70 71 72 71 71 70 71 71 71 71 70 70 69
22 31 31 30 28 28 41 42 44 47 44 41 41 44 46 48 50 51 53 55 57 56 60 63 66 68 69 70 71 71 71 72 72 72 71 71 70 69 70 71 72 71 70 71 70 70 70 69 70
20 23 24 30 28 27 37 39 49 51 51 40 42 44 46 48 49 52 54 55 57 57 61 64 65 66 69 71 72 71 72 72 73 72 71 72 71 71 71 70 71 71 70 71 71 70 70 70 70
22 21 19 20 23 28 34 39 46 45 45 41 41 44 46 48 49 53 54 57 59 62 67 67 62 59 58 61 62 67 72 70 68 70 70 70 70 72 71 70 71 71 71 71 69 70 68 68 68
Wind_Speed
13 16 14 7 1 4 8 8 13 21 12 14 13 21 18 20 7 15 28 29 31 26 25 22 21 19 18 18 17 17 17 16 15 16 15 15 16 14 13 13 12 14 14 12 14 14 14 13 14
13 14 7 8 5 3 9 15 15 28 21 10 17 20 26 21 24 26 24 31 28 26 25 23 21 20 20 17 17 16 16 15 13 15 14 14 14 14 13 13 13 12 12 12 11 13 12 13 13
12 8 11 3 7 3 5 6 11 16 16 5 12 27 11 24 22 18 30 32 30 25 25 24 22 21 20 19 17 16 16 15 13 13 13 13 13 13 12 11 11 11 10 9 9 10 10 10 12
10 4 6 7 17 19 14 1 10 16 15 24 5 14 18 20 18 26 29 31 29 27 28 24 22 21 20 17 17 17 16 15 13 12 12 11 11 10 10 9 8 8 7 6 6 8 8 8 8
8 7 3 7 12 10 15 14 25 2 8 19 22 20 16 10 27 25 28 28 29 28 26 23 21 21 20 18 17 16 16 15 13 12 11 10 9 8 7 6 5 4 3 2 3 5 6 7 8
7 5 5 3 8 6 9 9 15 9 11 16 11 20 13 11 21 23 24 27 30 27 26 23 21 19 19 18 16 15 14 15 14 13 12 10 7 4 3 3 1 1 1 2 2 4 7 8 7
15 5 10 9 10 7 7 7 8 20 21 17 13 17 12 19 21 21 23 30 26 26 25 22 19 17 18 17 16 15 15 16 15 14 13 10 4 1 0 2 1 1 3 3 4 4 8 9 8
8 15 7 4 13 15 6 8 26 16 18 14 14 13 18 22 22 18 21 23 27 25 23 20 19 16 16 16 16 16 17 17 20 17 16 10 5 1 3 2 1 4 5 4 6 6 9 9 8
3 8 7 13 15 12 5 8 16 23 8 14 10 22 23 23 22 19 22 22 23 23 21 20 18 17 14 15 15 16 16 16 16 16 12 11 3 3 5 3 6 9 10 9 8 6 10 11 9
19 6 4 18 2 16 4 6 5 21 29 23 10 23 24 21 24 22 27 24 25 24 21 17 18 18 19 18 18 13 13 12 8 8 7 9 8 4 8 10 13 14 13 13 11 10 14 9 4
9 3 2 3 11 16 12 18 12 27 13 12 11 14 24 21 23 21 22 29 26 24 21 22 20 19 17 15 17 13 11 9 8 8 8 6 6 7 9 10 8 6 14 10 11 12 12 8 13
10 7 1 6 3 1 13 3 31 15 14 26 35 26 22 22 24 23 25 22 26 24 26 24 22 17 12 15 13 13 12 11 12 13 12 9 8 10 12 9 8 11 11 5 11 9 12 16 15
13 4 2 7 3 7 3 7 6 10 7 19 19 19 17 20 24 22 24 22 17 23 22 17 21 19 17 12 14 13 13 12 7 6 12 12 11 12 12 10 9 10 10 11 11 12 4 6 9
11 7 8 6 5 2 5 3 3 10 5 2 12 21 17 17 22 20 10 20 18 13 12 22 18 16 15 12 13 13 11 12 9 11 12 14 10 5 7 9 10 8 8 11 14 5 5 12 19
13 9 10 10 8 1 1 3 16 4 3 5 13 15 12 8 24 25 14 15 14 20 15 16 17 15 15 12 11 12 10 10 10 10 9 11 9 9 7 7 10 12 8 17 10 3 4 9 13
15 15 14 5 7 6 5 8 20 29 6 8 12 9 3 21 20 18 15 21 16 7 14 18 17 19 17 17 12 10 9 10 11 9 9 11 10 9 9 6 9 7 11 8 12 2 6 10 8
12 14 7 13 12 4 7 6 18 25 5 12 13 9 12 25 20 19 17 18 6 3 4 3 13 19 16 13 11 9 10 9 15 12 11 13 11 11 8 8 10 9 11 9 11 4 5 7 8
7 2 14 12 2 11 5 16 9 6 3 4 11 12 7 10 16 19 18 7 4 5 4 27 8 15 13 13 11 8 3 8 6 8 9 14 11 13 9 9 10 9 13 5 9 6 6 12 12
12 18 12 14 9 4 1 3 6 5 3 2 11 17 7 10 13 12 12 8 3 1 9 8 8 13 11 10 10 9 8 9 7 7 5 6 9 12 12 8 10 11 13 8 7 7 9 12 14
10 13 13 7 7 7 10 5 6 5 4 7 9 9 9 10 14 12 14 14 15 18 19 16 15 12 12 11 9 6 8 7 6 7 9 12 17 10 11 13 10 10 11 7 7 6 5 12 13
14 17 3 5 11 10 10 8 6 6 6 2 11 12 10 14 17 18 19 23 18 22 20 15 15 15 13 12 9 8 6 10 4 6 7 9 9 10 12 12 12 7 10 11 12 8 8 14 5
19 16 11 12 13 13 10 7 3 11 14 8 14 16 14 18 20 21 22 19 27 17 14 14 12 13 13 11 11 9 9 7 7 9 8 11 12 11 12 13 11 10 10 13 8 10 13 9 12
21 7 17 17 16 21 15 10 7 9 12 12 13 17 18 24 20 19 19 16 16 17 17 16 15 13 10 12 6 5 8 8 7 8 10 14 14 15 14 14 12 13 12 13 13 9 7 8 9
22 14 12 17 20 21 11 15 12 12 23 21 17 17 16 21 18 17 22 16 17 19 19 18 15 13 9 12 11 11 6 7 8 10 11 12 10 12 15 13 14 13 13 14 10 11 10 8 8
18 16 19 16 20 6 14 6 4 22 27 15 21 19 17 17 20 19 22 20 20 20 18 18 19 14 13 12 10 11 10 11 12 12 12 13 12 10 13 14 13 13 15 13 11 9 7 7 9
14 22 21 8 11 9 31 11 8 17 15 19 19 22 21 21 19 18 15 18 17 12 21 18 19 16 15 13 11 11 10 10 11 12 13 13 11 12 12 14 14 15 13 14 12 11 12 12 13
21 21 10 8 13 12 4 5 15 35 28 19 21 23 24 21 20 20 17 14 10 11 7 7 15 11 11 13 12 11 10 9 7 3 8 13 14 13 13 14 14 14 13 14 14 14 14 12 8
23 8 5 3 6 20 5 3 3 38 16 22 22 23 24 22 21 20 18 15 13 14 15 13 8 8 7 9 9 9 6 5 1 1 5 2 5 9 13 14 14 14 14 14 14 12 14 14 12
22 25 19 23 10 10 11 6 29 33 32 21 24 23 24 22 21 19 16 15 14 14 19 20 9 5 11 13 11 8 4 4 2 4 4 5 6 4 5 8 9 10 11 12 14 15 17 14 14
24 23 24 21 18 21 8 7 18 24 15 19 24 23 23 21 19 21 18 17 10 13 21 21 17 14 11 10 10 8 6 3 3 1 4 4 5 2 7 9 10 11 10 12 15 15 16 15 15
Wind_Direction
262 249 235 267 213 12 243 105 113 44 13 77 56 91 99 133 153 121 148 121 122 135 136 144 144 138 135 137 136 133 125 118 114 105 104 98 94 93 93 91 99 103 101 96 107 113 118 119 118
266 271 257 265 334 108 45 67 86 137 225 121 80 84 80 91 106 132 118 128 129 132 142 141 142 140 140 141 137 138 135 123 118 109 105 100 98 94 90 86 85 94 104 113 111 120 125 127 128
262 297 276 182 79 310 112 134 160 143 92 78 108 107 77 109 122 129 128 131 133 141 137 136 141 142 141 142 140 139 140 132 127 116 109 102 101 101 98 94 91 88 88 111 117 120 126 133 140
285 17 290 300 152 211 97 328 73 26 113 100 144 74 75 112 122 128 140 134 135 147 127 138 140 141 143 144 146 145 143 140 134 126 116 110 104 104 102 97 87 90 104 105 121 130 138 148 151
243 108 186 302 70 89 131 90 79 134 65 94 101 88 96 81 112 142 143 138 131 116 130 138 141 144 144 146 151 148 148 144 137 127 118 113 106 102 100 100 101 104 108 118 137 121 156 166 154
39 6 46 137 99 70 89 88 129 169 87 100 72 84 98 130 126 153 140 126 126 129 133 138 139 143 145 147 150 150 148 141 134 127 112 91 93 105 115 111 116 141 195 234 226 167 188 192 181
165 249 245 160 50 119 126 135 112 32 33 92 97 87 119 124 146 156 126 119 132 132 126 138 143 144 144 146 150 149 145 138 130 125 115 104 82 83 106 122 144 268 283 269 251 220 206 212 200
304 176 82 324 79 304 116 95 105 94 357 289 124 125 139 141 152 153 122 131 130 126 139 142 146 149 152 151 152 151 149 144 136 133 126 121 72 56 238 217 281 286 277 270 259 241 215 221 215
322 14 89 88 140 198 123 130 126 133 42 285 41 141 145 149 151 149 117 114 126 132 141 148 153 157 160 151 163 162 159 161 161 157 147 119 142 326 282 291 272 265 264 260 253 239 205 210 205
104 211 279 129 257 9 107 105 265 81 30 344 30 117 138 160 154 156 132 138 144 150 146 154 162 168 172 178 151 170 170 167 175 168 171 172 197 253 285 277 268 263 257 259 248 228 217 207 224
109 341 291 80 83 85 309 288 93 102 113 194 244 148 148 163 157 158 163 150 152 157 154 161 175 174 185 141 156 156 154 159 171 175 183 185 201 236 267 269 274 290 261 252 215 217 224 192 218
353 168 352 13 57 219 210 340 123 119 187 175 210 231 160 172 165 172 173 163 158 158 165 167 175 176 141 148 155 156 169 202 196 187 180 191 194 214 253 263 278 287 297 250 254 247 222 201 208
186 173 241 186 248 251 302 59 11 46 152 197 202 155 177 185 161 174 168 144 150 160 168 162 165 149 162 166 165 156 182 210 184 173 174 190 198 207 238 243 252 249 305 284 261 257 31 9 328
312 243 261 179 236 164 267 86 308 42 25 168 150 163 176 199 177 153 100 142 145 146 162 144 157 142 149 142 152 164 190 220 191 188 195 209 197 193 203 252 285 305 300 288 267 43 279 112 255
258 249 233 221 182 115 23 141 6 39 31 108 202 143 177 126 54 98 75 12 179 163 176 154 154 159 154 156 165 179 197 199 169 188 197 201 195 192 206 240 259 263 243 275 298 269 257 207 211
232 243 240 41 195 143 249 55 324 292 203 136 113 118 170 68 95 84 66 68 301 142 177 167 172 172 173 154 177 184 206 188 163 179 195 186 182 185 202 216 249 294 297 318 301 254 285 272 297
207 235 217 210 242 272 203 186 224 266 260 128 124 173 180 110 107 126 144 178 236 9 155 34 199 177 159 164 162 192 199 198 171 179 188 199 174 200 186 207 258 272 282 297 288 347 222 284 265
262 329 212 174 212 243 329 158 169 196 295 205 197 192 138 125 132 160 163 136 256 280 309 190 144 149 150 159 166 199 226 223 164 170 189 184 178 189 190 211 250 264 266 242 305 327 317 307 307
253 200 233 180 136 241 298 80 108 150 193 169 92 127 137 134 149 125 142 131 354 213 248 209 178 146 164 166 175 188 200 204 248 157 217 136 233 179 200 218 220 244 270 256 278 330 315 314 309
235 269 253 115 168 213 198 131 123 176 87 4 84 82 105 135 139 156 151 136 204 229 233 203 169 169 180 175 189 175 214 206 175 150 136 218 209 179 200 230 213 223 262 240 247 282 335 311 325
250 248 266 283 244 228 255 96 59 347 118 86 96 110 142 155 162 172 186 193 208 212 199 177 173 175 184 178 175 192 227 108 115 130 177 223 238 194 221 256 237 227 249 257 230 221 239 252 274
242 229 192 254 247 248 201 226 19 313 336 179 144 160 170 159 168 179 186 186 186 153 163 174 183 181 181 188 187 194 190 179 203 205 217 218 220 211 225 232 234 239 250 255 261 235 222 244 272
258 202 266 266 241 256 195 68 303 310 290 245 176 176 157 166 169 168 153 117 135 152 162 166 177 185 190 186 209 192 201 193 186 202 220 203 209 213 217 223 225 229 233 248 260 262 248 278 279
244 252 260 259 261 254 156 211 222 224 231 230 170 173 157 148 145 114 130 184 169 162 164 157 165 170 192 187 181 209 189 195 208 214 216 227 223 208 213 217 222 227 230 247 257 251 234 257 291
249 258 259 236 245 335 322 273 195 220 231 212 166 158 153 150 144 161 158 170 198 162 151 162 161 171 191 186 196 196 198 222 213 218 211 221 215 209 221 212 213 215 222 235 234 255 268 263 266
214 235 254 274 306 302 296 14 327 257 225 179 164 154 163 161 153 152 161 153 170 156 169 165 161 174 182 190 197 190 201 220 233 230 219 210 211 206 199 204 211 218 213 218 222 218 236 233 237
248 227 184 214 260 268 303 48 319 281 244 158 162 161 160 167 160 156 162 156 159 153 166 149 154 163 190 186 182 190 213 223 211 202 228 190 205 204 195 197 204 212 206 224 238 218 227 243 267
243 129 74 291 246 249 34 35 256 296 273 169 162 167 165 167 165 160 160 160 160 158 151 126 139 157 169 139 174 165 181 227 334 269 287 352 294 178 191 212 199 211 218 211 221 249 242 227 235
220 241 245 215 245 280 159 195 163 233 260 181 167 172 171 171 165 152 157 153 184 193 146 130 142 88 92 88 81 87 83 58 137 258 278 295 288 293 263 213 223 224 224 214 219 238 260 235 238
244 237 231 238 249 220 105 182 206 219 248 220 170 174 173 166 162 153 166 164 156 86 88 87 93 94 94 106 105 119 119 136 101 328 290 293 306 280 268 264 258 249 245 248 236 231 243 244 243